This demonstration page uses our WeatherBlox Daily Observations layout. Learn more.

Left ArrowRight Arrow

39.92423, -83.80882

Hourly Observations for August 15, 2020

Temp ( °F °C ) Dew Point ( °F °C ) Humidity (%) Winds ( mph kmh ) Pressure ( in mb ) Visibility ( mi km ) Precip ( " mm )
12:56 am 00:56 Cloudy with Mist and Fog 68 20 68 20 100 100 NE 6 9 29.96 1015 6 10 0.00 0.00
1:56 am 01:56 Cloudy with Light Rain 68 20 68 20 100 100 SE 7 11 29.92 1013 10 16 0.00 0.00
2:56 am 02:56 Partly Cloudy 68 20 68 20 100 100 NNW 7 11 29.91 1013 10 16 0.00 0.00
3:56 am 03:56 Cloudy 67 19.4 67 19.4 100 100 NNW 7 11 29.92 1013 10 16 N/A
4:56 am 04:56 Cloudy 68 20 68 20 100 100 NNW 5 7 29.93 1014 10 16 N/A
5:56 am 05:56 Cloudy 67 19.4 67 19.4 100 100 N 6 9 29.94 1014 10 16 N/A
6:56 am 06:56 Mostly Cloudy 67 19.4 67 19.4 100 100 N 6 9 29.93 1013 10 16 N/A
7:56 am 07:56 Mostly Cloudy 68 20 68 20 100 100 NE 5 7 29.92 1013 10 16 N/A
8:56 am 08:56 Partly Cloudy 69 20.6 69 20.6 100 100 W 5 7 29.93 1014 10 16 N/A
9:56 am 09:56 Mostly Cloudy 71 21.7 70 21.1 96 96 N N/A 29.95 1014 10 16 N/A
10:56 am 10:56 Sunny 76 24.4 70 21.1 82 82 N N/A 29.94 1014 10 16 N/A
11:56 am 11:56 Mostly Cloudy 78 25.6 71 21.7 79 79 N N/A 29.95 1014 10 16 N/A
12:56 pm 12:56 Sunny 81 27.2 70 21.1 69 69 NW 3 6 29.93 1014 10 16 N/A
1:56 pm 13:56 Mostly Sunny 83 28.3 70 21.1 65 65 VRB 6 9 29.93 1014 10 16 N/A
2:56 pm 14:56 Mostly Cloudy 84 28.9 71 21.7 65 65 NNW 7 11 29.92 1013 10 16 N/A
3:56 pm 15:56 Mostly Sunny 84 28.9 68 20 59 59 VRB 6 9 29.90 1013 10 16 N/A
4:56 pm 16:56 Mostly Cloudy 82 27.8 70 21.1 67 67 E 7 11 29.89 1012 10 16 N/A
5:56 pm 17:56 Mostly Sunny 80 26.7 71 21.7 74 74 SSE 5 7 29.89 1012 10 16 N/A
6:56 pm 18:56 Partly Cloudy 77 25 68 20 74 74 SE 8 13 29.91 1013 10 16 N/A
7:56 pm 19:56 Sunny 74 23.3 66 18.9 76 76 E 8 13 29.92 1013 10 16 N/A
8:56 pm 20:56 Clear 69 20.6 67 19.4 93 93 E 7 11 29.94 1014 10 16 N/A
9:56 pm 21:56 Clear 68 20 68 20 100 100 N N/A 29.95 1014 10 16 N/A
10:56 pm 22:56 Clear 67 19.4 67 19.4 100 100 ESE 3 6 29.95 1014 10 16 N/A
11:56 pm 23:56 Clear 68 20 68 20 100 100 ESE 8 13 29.96 1014 10 16 N/A

Powered by AerisWeather